Time,TemperatureF,DewpointF,PressureIn,WindDirection,WindDirectionDegrees,WindSpeedMPH,WindSpeedGustMPH,Humidity,HourlyPrecipIn,Conditions,Clouds,dailyrainin,SoftwareType,DateUTC
2013-07-22 00:09:00,61.2,60.0,29.89,East,79,0.0,-999.0,96,-99.99,,,0.00,weatherlink.com 1.10,2013-07-22 05:09:00,
2013-07-22 00:24:00,61.4,60.0,29.89,East,79,0.0,-999.0,96,-99.99,,,0.00,weatherlink.com 1.10,2013-07-22 05:24:00,
2013-07-22 00:39:00,61.4,60.0,29.88,East,79,0.0,-999.0,96,-99.99,,,0.00,weatherlink.com 1.10,2013-07-22 05:39:00,
2013-07-22 00:54:00,60.9,60.0,29.88,East,79,0.0,-999.0,96,-99.99,,,0.00,weatherlink.com 1.10,2013-07-22 05:54:00,
2013-07-22 01:09:00,60.6,60.0,29.88,East,79,0.0,-999.0,96,-99.99,,,0.00,weatherlink.com 1.10,2013-07-22 06:09:00,
2013-07-22 01:24:00,60.3,59.0,29.88,East,79,0.0,-999.0,96,-99.99,,,0.00,weatherlink.com 1.10,2013-07-22 06:24:00,
2013-07-22 01:39:00,60.2,59.0,29.86,ESE,105,0.0,-999.0,96,-99.99,,,0.00,weatherlink.com 1.10,2013-07-22 06:39:00,
2013-07-22 01:54:00,60.1,59.0,29.86,ENE,74,0.0,-999.0,96,-99.99,,,0.00,weatherlink.com 1.10,2013-07-22 06:54:00,
2013-07-22 02:09:00,60.2,59.0,29.86,ENE,71,0.0,-999.0,96,-99.99,,,0.00,weatherlink.com 1.10,2013-07-22 07:09:00,
2013-07-22 02:24:00,59.9,59.0,29.86,ENE,68,0.0,-999.0,96,-99.99,,,0.00,weatherlink.com 1.10,2013-07-22 07:24:00,
2013-07-22 02:39:00,59.7,59.0,29.85,East,85,0.0,-999.0,96,-99.99,,,0.00,weatherlink.com 1.10,2013-07-22 07:39:00,
2013-07-22 02:54:00,59.6,59.0,29.85,East,85,0.0,-999.0,96,-99.99,,,0.00,weatherlink.com 1.10,2013-07-22 07:54:00,
2013-07-22 03:09:00,59.6,59.0,29.86,East,85,0.0,-999.0,96,-99.99,,,0.00,weatherlink.com 1.10,2013-07-22 08:09:00,
2013-07-22 03:24:00,59.6,59.0,29.86,East,85,0.0,-999.0,96,-99.99,,,0.00,weatherlink.com 1.10,2013-07-22 08:24:00,
2013-07-22 03:39:00,59.7,59.0,29.86,East,85,0.0,-999.0,96,-99.99,,,0.00,weatherlink.com 1.10,2013-07-22 08:39:00,
2013-07-22 03:54:00,59.7,59.0,29.86,East,85,0.0,-999.0,96,-99.99,,,0.00,weatherlink.com 1.10,2013-07-22 08:54:00,
2013-07-22 04:09:00,59.5,58.0,29.85,East,85,0.0,-999.0,96,-99.99,,,0.00,weatherlink.com 1.10,2013-07-22 09:09:00,
2013-07-22 04:24:00,59.4,58.0,29.84,East,85,0.0,-999.0,96,-99.99,,,0.00,weatherlink.com 1.10,2013-07-22 09:24:00,
2013-07-22 04:39:00,59.3,58.0,29.84,East,85,0.0,-999.0,96,-99.99,,,0.00,weatherlink.com 1.10,2013-07-22 09:39:00,
2013-07-22 04:54:00,59.2,58.0,29.84,East,85,0.0,-999.0,96,-99.99,,,0.00,weatherlink.com 1.10,2013-07-22 09:54:00,
2013-07-22 05:09:00,59.1,58.0,29.84,East,85,0.0,-999.0,96,-99.99,,,0.00,weatherlink.com 1.10,2013-07-22 10:09:00,
2013-07-22 05:24:00,59.1,58.0,29.83,East,85,0.0,-999.0,96,-99.99,,,0.00,weatherlink.com 1.10,2013-07-22 10:24:00,
2013-07-22 05:39:00,59.0,58.0,29.83,East,85,0.0,-999.0,96,-99.99,,,0.00,weatherlink.com 1.10,2013-07-22 10:39:00,
2013-07-22 05:54:00,59.2,58.0,29.82,East,85,0.0,-999.0,96,-99.99,,,0.00,weatherlink.com 1.10,2013-07-22 10:54:00,
2013-07-22 06:09:00,59.6,59.0,29.83,East,85,0.0,-999.0,97,-99.99,,,0.00,weatherlink.com 1.10,2013-07-22 11:09:00,
2013-07-22 06:24:00,60.0,59.0,29.83,East,85,0.0,-999.0,97,-99.99,,,0.00,weatherlink.com 1.10,2013-07-22 11:24:00,
2013-07-22 06:39:00,60.3,60.0,29.84,East,85,0.0,-999.0,97,-99.99,,,0.00,weatherlink.com 1.10,2013-07-22 11:39:00,
2013-07-22 06:54:00,61.0,60.0,29.83,East,85,0.0,-999.0,97,-99.99,,,0.00,weatherlink.com 1.10,2013-07-22 11:54:00,
2013-07-22 07:09:00,61.6,61.0,29.84,East,85,0.0,-999.0,97,-99.99,,,0.00,weatherlink.com 1.10,2013-07-22 12:09:00,
2013-07-22 07:24:00,62.1,61.0,29.83,East,85,0.0,-999.0,97,-99.99,,,0.00,weatherlink.com 1.10,2013-07-22 12:24:00,
2013-07-22 07:39:00,62.5,62.0,29.83,East,85,0.0,-999.0,97,-99.99,,,0.00,weatherlink.com 1.10,2013-07-22 12:39:00,
2013-07-22 07:54:00,63.2,62.0,29.83,East,85,0.0,-999.0,97,-99.99,,,0.00,weatherlink.com 1.10,2013-07-22 12:54:00,
2013-07-22 08:09:00,64.0,63.0,29.82,East,85,0.0,-999.0,97,-99.99,,,0.00,weatherlink.com 1.10,2013-07-22 13:09:00,
2013-07-22 08:24:00,64.7,64.0,29.82,SSW,205,0.0,-999.0,96,-99.99,,,0.00,weatherlink.com 1.10,2013-07-22 13:24:00,
2013-07-22 08:40:00,65.9,65.0,29.82,SSW,205,0.0,-999.0,96,-99.99,,,0.00,weatherlink.com 1.10,2013-07-22 13:40:00,
2013-07-22 08:55:00,66.2,65.0,29.82,WSW,240,1.0,-999.0,95,-99.99,,,0.00,weatherlink.com 1.10,2013-07-22 13:55:00,
2013-07-22 09:10:00,67.4,65.0,29.82,WSW,240,1.0,-999.0,93,-99.99,,,0.00,weatherlink.com 1.10,2013-07-22 14:10:00,
2013-07-22 09:25:00,67.9,66.0,29.81,SW,219,0.0,-999.0,92,-99.99,,,0.00,weatherlink.com 1.10,2013-07-22 14:25:00,
2013-07-22 09:40:00,68.4,66.0,29.81,WSW,241,3.0,-999.0,91,-99.99,,,0.00,weatherlink.com 1.10,2013-07-22 14:40:00,
2013-07-22 09:55:00,68.9,66.0,29.81,WSW,241,1.0,-999.0,90,-99.99,,,0.00,weatherlink.com 1.10,2013-07-22 14:55:00,
2013-07-22 10:10:00,69.4,66.0,29.81,SW,227,0.0,-999.0,89,-99.99,,,0.00,weatherlink.com 1.10,2013-07-22 15:10:00,
2013-07-22 10:25:00,71.1,67.0,29.81,SSW,213,0.0,-999.0,87,-99.99,,,0.00,weatherlink.com 1.10,2013-07-22 15:25:00,
2013-07-22 10:40:00,73.1,68.0,29.80,WSW,244,0.0,-999.0,83,-99.99,,,0.00,weatherlink.com 1.10,2013-07-22 15:40:00,
2013-07-22 10:55:00,74.1,68.0,29.80,SSW,209,0.0,-999.0,80,-99.99,,,0.00,weatherlink.com 1.10,2013-07-22 15:55:00,
2013-07-22 11:10:00,74.8,69.0,29.80,SW,219,3.0,-999.0,81,-99.99,,,0.00,weatherlink.com 1.10,2013-07-22 16:10:00,
2013-07-22 11:25:00,75.9,69.0,29.80,West,261,4.0,-999.0,79,-99.99,,,0.00,weatherlink.com 1.10,2013-07-22 16:25:00,
2013-07-22 11:40:00,76.6,69.0,29.80,SSW,202,2.0,-999.0,78,-99.99,,,0.00,weatherlink.com 1.10,2013-07-22 16:40:00,
2013-07-22 11:55:00,77.6,70.0,29.79,WSW,237,1.0,-999.0,76,-99.99,,,0.00,weatherlink.com 1.10,2013-07-22 16:55:00,
2013-07-22 12:10:00,78.3,69.0,29.79,SSW,193,8.0,-999.0,73,-99.99,,,0.00,weatherlink.com 1.10,2013-07-22 17:10:00,
2013-07-22 12:25:00,79.8,69.0,29.78,South,184,7.0,-999.0,70,-99.99,,,0.00,weatherlink.com 1.10,2013-07-22 17:25:00,
2013-07-22 12:40:00,80.1,69.0,29.77,SW,232,3.0,-999.0,69,-99.99,,,0.00,weatherlink.com 1.10,2013-07-22 17:40:00,
2013-07-22 12:55:00,80.9,70.0,29.76,SSW,205,5.0,-999.0,70,-99.99,,,0.00,weatherlink.com 1.10,2013-07-22 17:55:00,
2013-07-22 13:10:00,81.3,68.0,29.75,SSW,211,9.0,-999.0,65,-99.99,,,0.00,weatherlink.com 1.10,2013-07-22 18:10:00,
2013-07-22 13:56:00,81.9,68.0,29.73,SW,219,0.0,-999.0,62,-99.99,,,0.00,weatherlink.com 1.10,2013-07-22 18:56:00,
2013-07-22 14:11:00,82.5,68.0,29.73,WSW,244,2.0,-999.0,62,-99.99,,,0.00,weatherlink.com 1.10,2013-07-22 19:11:00,
2013-07-22 14:26:00,83.6,70.0,29.71,SW,231,12.0,-999.0,63,-99.99,,,0.00,weatherlink.com 1.10,2013-07-22 19:26:00,
2013-07-22 14:41:00,83.2,69.0,29.70,SSW,198,3.0,-999.0,63,-99.99,,,0.00,weatherlink.com 1.10,2013-07-22 19:41:00,
2013-07-22 15:26:00,82.9,70.0,29.71,WSW,238,8.0,-999.0,66,-99.99,,,0.00,weatherlink.com 1.10,2013-07-22 20:26:00,
2013-07-22 15:41:00,82.7,71.0,29.71,South,182,0.0,-999.0,68,-99.99,,,0.00,weatherlink.com 1.10,2013-07-22 20:41:00,
2013-07-22 15:56:00,81.8,71.0,29.70,SW,227,4.0,-999.0,70,-99.99,,,0.00,weatherlink.com 1.10,2013-07-22 20:56:00,
2013-07-22 16:11:00,83.9,71.0,29.70,SW,219,3.0,-999.0,65,-99.99,,,0.00,weatherlink.com 1.10,2013-07-22 21:11:00,
2013-07-22 16:26:00,83.6,72.0,29.69,SW,233,11.0,-999.0,67,-99.99,,,0.00,weatherlink.com 1.10,2013-07-22 21:26:00,
2013-07-22 16:41:00,82.6,71.0,29.69,WSW,258,7.0,-999.0,67,-99.99,,,0.00,weatherlink.com 1.10,2013-07-22 21:41:00,
2013-07-22 16:56:00,83.8,72.0,29.68,West,260,8.0,-999.0,68,-99.99,,,0.00,weatherlink.com 1.10,2013-07-22 21:56:00,
2013-07-22 17:11:00,82.9,71.0,29.68,SSW,211,6.0,-999.0,67,-99.99,,,0.00,weatherlink.com 1.10,2013-07-22 22:11:00,
2013-07-22 17:26:00,82.1,71.0,29.68,West,270,6.0,-999.0,70,-99.99,,,0.00,weatherlink.com 1.10,2013-07-22 22:26:00,
2013-07-22 17:41:00,81.8,71.0,29.68,SW,222,0.0,-999.0,70,-99.99,,,0.00,weatherlink.com 1.10,2013-07-22 22:41:00,
2013-07-22 17:56:00,81.4,71.0,29.68,SW,225,2.0,-999.0,70,-99.99,,,0.00,weatherlink.com 1.10,2013-07-22 22:56:00,
2013-07-22 18:11:00,80.7,71.0,29.68,WSW,241,1.0,-999.0,73,-99.99,,,0.00,weatherlink.com 1.10,2013-07-22 23:11:00,
2013-07-22 18:26:00,80.0,71.0,29.68,SW,229,3.0,-999.0,74,-99.99,,,0.00,weatherlink.com 1.10,2013-07-22 23:26:00,
2013-07-22 18:41:00,79.3,71.0,29.66,WSW,246,3.0,-999.0,75,-99.99,,,0.00,weatherlink.com 1.10,2013-07-22 23:41:00,
2013-07-22 18:56:00,79.0,71.0,29.66,WSW,239,4.0,-999.0,76,-99.99,,,0.00,weatherlink.com 1.10,2013-07-22 23:56:00,
2013-07-22 19:11:00,78.6,71.0,29.66,SW,224,6.0,-999.0,77,-99.99,,,0.00,weatherlink.com 1.10,2013-07-23 00:11:00,
2013-07-22 19:26:00,78.5,71.0,29.62,SW,232,4.0,-999.0,77,-99.99,,,0.00,weatherlink.com 1.10,2013-07-23 00:26:00,
2013-07-22 19:41:00,78.7,71.0,29.58,SW,214,9.0,-999.0,77,-99.99,,,0.00,weatherlink.com 1.10,2013-07-23 00:41:00,
2013-07-22 19:56:00,79.0,71.0,29.54,SW,229,15.0,-999.0,76,-99.99,,,0.00,weatherlink.com 1.10,2013-07-23 00:56:00,
2013-07-22 20:11:00,78.5,71.0,29.60,West,260,2.0,-999.0,78,-99.99,,,0.00,weatherlink.com 1.10,2013-07-23 01:11:00,
2013-07-22 20:26:00,78.2,71.0,29.62,West,265,0.0,-999.0,79,-99.99,,,0.00,weatherlink.com 1.10,2013-07-23 01:26:00,
2013-07-22 20:41:00,77.9,71.0,29.65,North,355,0.0,-999.0,80,-99.99,,,0.00,weatherlink.com 1.10,2013-07-23 01:41:00,
2013-07-22 20:56:00,77.9,71.0,29.66,North,355,0.0,-999.0,80,-99.99,,,0.00,weatherlink.com 1.10,2013-07-23 01:56:00,
2013-07-22 21:11:00,77.9,71.0,29.67,North,355,0.0,-999.0,80,-99.99,,,0.00,weatherlink.com 1.10,2013-07-23 02:11:00,
2013-07-22 21:26:00,78.2,71.0,29.66,WSW,258,0.0,-999.0,79,-99.99,,,0.00,weatherlink.com 1.10,2013-07-23 02:26:00,
2013-07-22 21:41:00,77.7,71.0,29.65,West,266,2.0,-999.0,80,-99.99,,,0.00,weatherlink.com 1.10,2013-07-23 02:41:00,
2013-07-22 21:56:00,76.6,71.0,29.66,SW,234,0.0,-999.0,82,-99.99,,,0.00,weatherlink.com 1.10,2013-07-23 02:56:00,
2013-07-22 22:11:00,76.1,70.0,29.67,West,277,3.0,-999.0,82,-99.99,,,0.00,weatherlink.com 1.10,2013-07-23 03:11:00,
2013-07-22 22:26:00,75.4,69.0,29.68,West,262,4.0,-999.0,81,-99.99,,,0.00,weatherlink.com 1.10,2013-07-23 03:26:00,
2013-07-22 22:41:00,75.2,68.0,29.68,West,264,5.0,-999.0,79,-99.99,,,0.00,weatherlink.com 1.10,2013-07-23 03:41:00,
2013-07-22 22:56:00,74.9,68.0,29.70,WNW,297,4.0,-999.0,78,-99.99,,,0.00,weatherlink.com 1.10,2013-07-23 03:56:00,
2013-07-22 23:11:00,75.1,67.0,29.70,WSW,254,6.0,-999.0,76,-99.99,,,0.00,weatherlink.com 1.10,2013-07-23 04:11:00,
2013-07-22 23:26:00,74.7,67.0,29.70,WSW,245,6.0,-999.0,76,-99.99,,,0.00,weatherlink.com 1.10,2013-07-23 04:26:00,
2013-07-22 23:41:00,74.9,67.0,29.70,WSW,252,6.0,-999.0,75,-99.99,,,0.00,weatherlink.com 1.10,2013-07-23 04:41:00,
2013-07-22 23:56:00,75.1,67.0,29.70,West,273,5.0,-999.0,75,-99.99,,,0.00,weatherlink.com 1.10,2013-07-23 04:56:00,